GFSWCAN_prec_cthk_198.txt.gz
RH
85 96 99 85 73 81 62 56 56 56 57 61 65 79 91 98 99 97 98 98 96 97 97 98 97 97 96 95 94 91 88 88 86 82 77 73 70 62 60 50 47 48 59 65 71 84 84 75 71 78 78 73 77 92
98 99 99 98 98 89 78 79 67 69 74 75 80 87 93 97 96 95 95 96 92 93 96 97 95 92 89 84 81 81 72 70 70 68 69 67 65 63 60 57 47 60 64 80 90 85 86 79 78 65 63 63 86 97
98 99 98 98 99 99 98 97 98 87 88 97 88 89 93 97 98 97 96 95 92 92 92 90 89 84 78 73 66 64 62 58 58 52 54 57 61 57 59 57 54 57 72 87 87 73 82 76 67 69 64 66 70 86
98 98 98 99 98 98 98 98 98 98 98 98 98 97 97 97 96 93 89 84 81 77 82 80 76 74 68 62 58 54 49 49 47 46 48 51 52 47 48 46 49 49 56 63 65 56 63 58 66 68 52 59 62 77
98 98 98 98 98 98 98 98 98 98 97 97 96 95 92 90 88 85 80 74 69 61 60 60 57 50 43 39 37 38 39 40 41 46 50 53 55 59 53 52 43 50 46 62 54 49 59 46 49 56 55 50 58 66
99 98 98 98 98 97 94 93 92 89 87 85 82 79 79 76 73 67 60 56 49 44 43 50 45 42 38 37 39 39 42 46 48 50 53 54 54 60 59 51 40 53 60 64 56 57 61 58 58 56 54 56 61 62
98 98 98 95 91 87 83 76 74 75 74 75 74 66 62 57 52 50 51 46 39 36 33 40 42 42 39 38 37 37 38 42 45 51 55 57 58 69 62 59 47 58 65 66 67 65 63 65 63 61 64 68 67 62
95 92 88 84 80 75 75 77 79 73 70 68 62 56 54 51 47 43 40 35 31 28 27 36 40 38 36 33 32 33 34 38 43 48 52 57 60 65 62 55 59 63 63 63 66 67 64 65 65 68 65 71 73 78
84 81 77 73 70 64 62 63 68 68 63 57 54 53 49 42 40 41 37 32 28 26 34 34 36 38 33 35 40 43 45 47 44 46 43 51 60 64 54 53 56 63 64 67 70 64 62 61 61 64 68 87 93 93
58 59 59 57 56 55 55 57 58 55 51 47 44 42 45 46 40 38 36 34 33 36 37 40 40 39 33 34 42 47 53 54 51 46 49 57 51 47 51 61 74 91 88 86 93 88 80 82 84 86 86 88 90 88
65 56 52 51 51 53 55 52 47 43 40 40 40 45 48 46 41 38 40 39 39 41 38 42 42 44 55 66 74 72 76 75 65 50 58 60 53 53 70 98 98 96 93 90 90 89 90 88 90 87 87 86 84 81
74 73 70 66 62 60 57 53 50 49 46 43 42 46 45 42 41 40 47 46 41 42 44 47 53 63 67 73 77 80 79 72 59 59 67 64 53 63 84 98 97 94 93 88 85 83 80 79 77 76 78 80 86 89
86 83 80 78 74 69 64 61 56 51 50 46 45 45 45 46 45 42 47 48 47 53 63 73 80 79 74 80 83 87 92 86 77 74 66 62 66 70 93 96 98 97 90 82 78 76 75 73 71 70 71 72 78 87
90 92 89 84 78 74 68 65 61 57 54 50 48 48 45 50 45 44 43 50 60 73 79 81 93 86 77 80 79 84 84 91 90 89 87 92 98 98 94 92 90 86 82 77 73 71 69 71 70 69 69 68 67 70
83 90 90 90 88 86 81 77 70 61 53 48 43 46 45 41 42 47 54 60 71 78 86 93 95 96 95 88 85 90 93 92 92 95 98 98 98 97 92 90 81 82 75 71 68 67 64 60 60 62 66 69 71 69
66 74 82 82 84 80 72 63 57 48 49 49 47 43 44 46 50 54 59 64 69 77 82 86 88 91 96 96 96 95 95 93 96 97 97 97 93 92 87 86 82 76 72 68 66 65 62 61 62 63 66 69 72 73
42 58 68 69 67 67 66 61 52 49 45 43 44 46 53 55 54 55 57 62 73 83 86 82 86 88 90 87 87 90 95 96 92 91 90 86 81 82 80 78 75 70 65 63 63 63 62 62 62 67 69 71 72 74
29 30 35 42 47 49 46 44 41 40 45 46 50 50 50 51 56 60 62 64 72 79 75 78 77 78 84 83 82 82 81 80 80 81 80 78 78 76 76 75 72 69 66 65 65 64 65 64 64 67 69 72 74 77
38 36 34 33 32 35 35 38 39 47 50 50 49 53 53 59 59 59 61 63 67 70 71 74 75 75 75 77 79 81 80 78 78 76 74 73 71 69 67 65 66 66 67 70 68 67 67 66 67 70 73 76 78 81
55 51 49 50 49 53 58 63 61 62 62 66 66 68 69 70 67 63 65 68 75 78 77 74 68 73 76 77 80 82 80 78 75 70 69 69 66 62 59 56 53 53 53 57 61 66 69 70 72 73 76 82 86 87
53 55 53 56 61 62 65 69 69 69 67 67 65 67 67 64 61 55 51 57 64 66 65 66 75 78 80 80 79 77 75 72 69 62 55 48 47 44 36 31 31 33 37 40 45 50 56 61 65 68 71 77 85 91
54 56 59 58 56 54 51 48 50 50 50 48 47 50 52 52 47 41 44 54 58 58 65 68 74 76 73 70 69 69 68 67 64 61 57 51 44 38 34 34 34 34 40 46 50 57 64 65 69 74 77 81 84 93
64 64 68 69 70 67 60 58 59 56 59 58 55 54 51 49 45 46 56 54 51 48 48 50 52 52 55 58 60 59 59 58 56 50 42 37 37 39 41 41 45 47 46 50 58 64 72 76 77 78 81 87 89 95
73 77 78 81 78 75 71 69 64 64 64 61 58 54 48 45 48 57 54 50 47 50 51 51 53 54 55 54 53 51 46 38 33 34 38 41 42 40 40 41 42 47 51 54 64 68 77 79 83 88 88 89 98 98
77 74 75 79 79 79 76 71 69 69 68 63 55 50 48 48 51 52 49 46 45 45 48 49 47 46 45 45 39 34 31 33 38 43 43 41 42 42 43 45 46 47 54 59 72 77 78 84 89 89 91 98 98 98
84 69 66 65 71 72 66 63 65 67 69 63 56 52 53 55 54 47 47 38 38 42 45 47 45 43 39 33 28 26 32 40 41 41 42 44 45 46 47 47 51 56 59 67 74 80 84 89 89 91 95 99 99 99
88 80 78 73 67 66 67 64 64 69 69 67 65 64 60 58 55 47 43 44 46 47 48 45 43 39 34 29 27 32 35 35 35 39 42 45 45 47 50 55 57 62 68 72 78 85 88 89 90 93 97 99 99 99
77 82 87 83 78 72 72 73 71 71 69 69 68 66 62 59 54 50 51 51 52 53 52 51 47 39 32 28 32 33 32 33 33 38 42 46 49 51 53 59 63 69 71 78 81 83 86 87 91 94 97 99 99 99
72 75 79 81 79 77 74 73 70 64 66 70 74 72 66 62 60 60 61 62 62 60 56 48 42 35 30 32 33 34 33 33 34 38 43 49 53 55 56 58 62 68 71 78 84 89 90 90 89 91 95 98 99 99
68 72 76 79 80 78 71 69 69 70 74 75 73 72 72 71 71 70 70 68 65 60 52 43 37 33 32 34 36 35 34 36 38 42 46 51 54 55 57 58 59 63 70 75 79 85 90 91 92 92 92 94 99 99
64 73 76 76 77 74 72 72 75 79 82 83 82 82 80 79 75 73 69 67 64 59 51 44 37 33 32 34 35 35 38 40 41 43 46 49 51 53 56 57 57 61 64 70 75 78 86 90 93 96 97 98 99 99
68 75 79 83 82 82 85 87 87 87 87 86 85 84 83 82 78 72 64 61 60 55 50 43 33 32 32 32 35 38 41 44 47 50 51 49 49 50 52 56 62 68 69 69 71 73 75 84 90 95 99 100 96 88
78 81 85 86 86 85 85 85 84 82 81 82 82 84 84 83 78 70 65 60 57 54 47 40 35 34 33 35 38 40 43 47 51 55 57 57 54 53 54 61 65 69 72 73 73 75 77 78 82 87 88 87 80 75

GFSWCAN_prec_cthk_201.txt.gz
RH
56 53 61 71 74 63 37 29 25 23 15 14 33 42 48 61 71 87 96 94 94 99 99 96 97 98 98 97 96 97 97 97 98 96 93 90 86 78 74 66 60 59 65 69 65 69 63 51 49 52 59 57 65 64
67 74 79 75 85 81 60 32 22 19 14 25 58 51 64 66 70 79 97 97 98 98 98 98 98 98 97 96 96 97 90 92 91 91 90 86 82 79 71 64 55 56 49 55 59 46 54 58 58 62 70 63 78 69
89 97 94 98 94 90 72 64 49 46 38 45 70 64 64 67 78 86 97 98 97 98 98 98 98 98 94 94 92 91 88 85 81 73 76 75 71 64 61 52 45 45 53 51 51 33 49 54 62 58 69 68 65 62
98 98 98 98 98 94 89 78 72 67 61 72 74 69 66 73 89 87 93 97 93 93 96 97 96 95 93 89 86 81 76 72 69 64 60 57 51 45 42 36 37 35 37 34 37 31 34 31 38 44 49 52 50 52
98 98 98 99 98 98 98 92 80 85 79 77 83 78 78 79 83 94 95 94 91 86 93 96 92 91 89 80 71 68 61 57 54 53 49 47 44 44 41 43 37 35 29 41 41 36 42 36 46 51 50 50 52 53
98 98 98 98 98 98 98 97 97 98 98 97 96 94 98 94 96 92 86 83 77 73 79 84 78 70 61 55 52 49 46 45 44 44 48 48 44 43 45 42 27 34 42 48 43 50 54 50 54 57 57 56 57 60
98 98 98 97 97 97 97 98 98 98 98 98 98 96 94 92 82 74 73 66 57 55 53 63 63 60 54 49 46 43 42 42 42 45 46 45 44 51 50 38 35 47 58 58 58 59 55 59 60 64 64 65 66 66
97 95 96 94 94 94 93 92 91 88 85 81 78 74 71 63 59 56 54 49 45 41 39 50 55 51 44 40 39 38 38 39 41 41 42 40 42 47 48 31 41 51 56 53 59 67 61 62 60 61 62 64 68 68
87 89 91 92 91 89 84 76 68 63 63 62 59 55 53 49 51 50 41 36 31 28 34 37 39 43 37 38 39 41 41 42 40 41 41 43 45 46 34 41 45 56 62 66 80 85 82 80 73 68 66 69 71 78
73 72 77 77 72 69 65 61 60 58 55 52 49 43 49 49 41 36 32 28 26 27 29 37 37 35 32 31 36 37 45 49 49 45 51 53 39 29 36 47 64 74 92 93 91 87 85 89 89 87 88 84 81 80
59 61 63 65 66 65 62 58 54 50 47 40 40 49 46 38 33 31 33 34 34 38 38 41 38 38 40 45 49 51 54 60 61 56 63 61 52 50 58 74 83 96 98 89 86 84 83 81 77 75 77 78 78 78
53 55 57 57 55 53 49 47 44 40 39 38 36 38 35 32 32 35 45 42 38 44 45 43 45 47 51 53 57 67 68 75 69 69 74 69 68 71 75 77 96 98 98 94 91 89 84 82 78 75 72 73 72 72
72 70 69 67 62 58 54 50 46 40 37 34 32 35 38 38 39 39 48 47 47 46 52 57 64 66 69 65 65 70 75 77 77 83 75 77 80 82 80 84 97 98 96 92 82 76 75 74 74 73 70 69 71 70
77 73 70 65 61 58 54 50 46 44 39 37 38 42 41 43 44 42 40 44 51 59 65 68 73 79 73 68 69 74 72 77 84 87 83 88 91 96 98 98 93 89 88 87 84 76 68 68 67 63 61 62 65 69
80 77 74 70 66 62 59 58 54 47 44 42 38 46 43 43 41 42 47 52 58 61 64 71 75 74 76 80 80 80 86 86 87 87 92 93 93 95 93 94 91 88 82 79 76 73 67 66 65 63 60 61 64 68
76 75 77 75 70 65 63 59 50 43 39 39 38 40 40 39 42 45 50 50 52 59 65 66 71 74 78 81 82 80 85 78 80 85 88 87 83 79 75 75 74 75 74 70 66 62 61 61 62 63 62 60 62 66
60 67 65 64 62 57 53 46 40 36 35 37 41 40 42 43 45 45 45 46 51 62 66 68 74 74 78 80 78 77 77 78 88 87 79 76 75 75 71 67 67 67 66 63 61 62 62 61 59 60 61 62 63 64
42 49 50 49 48 46 41 36 33 33 37 39 39 40 41 41 42 44 46 49 53 64 68 69 70 73 74 74 72 74 82 82 78 77 73 72 71 69 67 64 61 60 58 58 59 58 62 63 62 62 62 64 66 68
26 27 29 31 31 31 30 30 30 39 43 42 44 44 44 44 49 49 50 53 57 64 63 66 67 66 64 62 64 68 74 77 79 76 74 72 68 65 63 59 55 51 48 47 47 50 53 58 61 65 67 68 69 69
30 29 29 28 29 34 39 45 43 44 47 52 53 56 56 57 60 59 58 60 63 68 69 62 52 50 58 65 71 75 76 78 78 76 75 75 71 64 52 45 40 36 31 26 25 29 32 37 45 48 54 60 65 69
45 46 43 43 45 49 54 59 59 60 60 60 58 60 61 61 60 58 56 56 59 58 54 50 49 57 64 69 72 74 74 76 75 70 64 58 56 53 51 48 40 34 33 31 30 30 35 43 47 52 54 57 62 69
47 48 49 50 48 48 47 45 45 45 43 44 43 43 43 43 43 45 45 48 45 39 42 46 59 62 61 62 59 55 54 56 60 60 57 54 47 38 32 31 34 36 37 39 43 44 46 55 59 62 64 66 67 72
61 59 57 58 58 57 56 55 53 50 48 50 52 52 48 45 44 43 46 49 43 38 44 49 49 49 50 52 54 55 56 56 53 48 39 31 32 38 41 41 41 40 39 37 44 49 53 59 65 70 72 73 76 77
70 70 71 71 69 68 66 67 65 63 62 59 58 54 50 47 48 48 49 47 41 44 47 48 49 51 52 53 51 50 48 41 34 30 31 37 41 38 38 38 40 41 44 45 45 52 58 65 69 77 78 80 82 86
73 73 75 77 77 76 76 74 71 70 68 66 63 58 55 53 55 54 50 45 43 43 43 46 50 50 48 45 43 41 36 29 29 33 39 40 38 37 37 39 45 48 49 50 54 58 63 70 77 79 88 88 89 90
80 72 72 72 78 77 75 72 69 71 72 68 65 63 61 61 61 55 52 46 43 45 48 50 50 49 47 45 43 33 28 28 33 35 36 37 39 41 39 39 43 53 58 59 60 67 69 78 82 88 89 90 92 95
84 81 77 73 73 73 72 67 65 68 70 68 68 69 68 68 65 58 53 53 53 54 57 57 57 55 53 49 36 29 30 31 32 31 34 38 42 43 44 46 52 58 61 65 68 72 78 80 89 90 92 94 96 99
77 77 78 78 81 79 77 76 74 73 71 70 72 76 74 70 66 62 64 62 61 63 64 65 64 61 52 40 33 33 33 32 30 30 35 40 44 46 50 53 54 58 64 69 72 78 80 86 90 91 92 96 99 99
72 74 72 75 80 83 83 82 81 76 72 69 71 72 72 72 72 71 71 72 72 72 72 71 66 59 47 38 36 35 33 31 32 34 38 42 46 50 54 54 53 55 61 66 73 79 83 88 90 90 90 93 98 99
66 69 72 73 76 77 74 74 75 73 71 71 71 73 75 76 76 77 78 78 78 76 74 71 63 50 44 39 36 33 33 34 35 38 42 44 46 50 53 52 54 55 56 63 70 78 84 90 91 92 92 94 97 99
67 71 70 70 76 74 73 71 71 74 77 77 78 79 80 81 80 81 81 79 78 76 73 67 56 48 41 36 34 32 34 36 38 41 45 48 50 49 50 51 53 54 56 59 66 72 77 86 91 93 94 94 94 99
61 64 66 70 75 77 79 79 79 81 82 83 83 83 84 84 83 80 76 73 70 69 66 59 54 46 38 35 32 33 35 36 38 42 47 51 53 52 49 49 55 61 67 68 66 68 70 76 85 92 96 98 100 99
61 61 66 74 79 83 86 85 83 80 80 80 78 77 78 78 76 72 71 67 64 63 59 56 49 41 36 34 32 35 37 38 41 44 48 53 56 60 57 53 58 62 68 72 71 72 74 75 79 86 91 95 93 85

GFSWCAN_prec_cthk_204.txt.gz
RH
32 39 47 49 50 46 46 48 52 53 52 49 45 45 43 37 35 60 85 93 98 98 98 97 95 95 95 97 98 98 98 96 98 98 96 89 86 84 82 75 80 82 84 85 83 84 77 56 54 50 47 44 41 43
46 50 49 49 51 50 48 47 50 55 59 57 53 45 38 31 27 55 74 84 92 98 97 98 98 98 97 97 97 98 96 92 93 94 92 91 90 90 83 82 77 78 70 66 66 53 55 49 42 45 48 48 49 51
57 57 57 59 62 62 65 64 64 58 59 64 61 51 38 24 36 63 66 74 88 94 98 98 98 97 97 97 97 96 96 94 90 88 90 89 86 80 84 76 69 62 59 55 49 34 34 36 34 32 35 39 40 47
80 89 95 91 80 72 66 78 89 86 78 76 73 51 26 31 62 74 77 77 78 87 94 97 97 98 98 98 97 95 92 93 91 87 84 81 76 69 64 57 54 48 50 39 39 34 32 28 29 32 33 36 41 45
96 94 95 86 89 88 72 70 86 95 97 78 64 37 45 72 76 65 76 82 83 83 92 98 97 98 97 95 92 90 88 87 83 82 79 70 62 53 48 47 45 32 31 36 36 32 36 32 38 42 44 48 53 56
93 97 98 97 98 82 68 36 31 44 52 55 50 69 79 79 87 88 92 96 90 85 93 95 97 97 95 91 88 84 81 78 72 69 62 56 51 46 51 42 31 28 31 36 33 38 40 40 45 51 54 59 61 60
98 98 98 98 95 96 86 89 87 81 78 93 98 98 96 97 98 94 82 82 84 81 89 94 94 93 90 79 75 70 61 60 59 58 55 51 48 44 46 40 27 32 35 39 43 46 44 49 51 56 57 60 62 65
97 98 98 98 98 98 98 98 98 98 98 98 99 97 91 89 89 90 89 90 82 79 75 82 87 80 74 69 65 62 57 53 49 50 45 41 48 48 44 25 29 34 39 43 47 53 54 63 65 69 66 62 65 67
97 95 92 92 95 97 97 98 98 98 96 93 87 83 85 83 79 77 71 63 59 52 64 68 71 71 61 57 52 48 46 47 42 44 44 46 44 54 31 35 34 37 46 59 65 68 74 73 77 82 77 75 77 77
86 77 71 73 75 75 78 79 78 77 73 70 67 64 68 68 61 56 52 50 46 47 51 57 54 52 48 44 44 41 41 43 49 46 49 48 43 41 41 42 43 54 62 76 86 87 82 85 82 83 81 80 81 80
72 70 66 62 60 57 56 58 58 56 55 53 55 58 55 50 46 43 46 46 45 47 45 45 39 35 36 39 41 43 47 49 52 55 53 49 47 61 57 59 62 68 74 96 97 95 92 87 83 78 73 71 72 73
65 64 62 59 57 56 52 45 41 39 40 40 41 41 37 34 36 38 43 39 38 41 41 42 44 44 45 47 49 52 53 53 54 56 62 59 69 67 65 71 79 76 97 98 96 93 87 82 80 78 74 71 69 67
66 64 60 56 52 49 46 43 37 35 34 31 31 32 35 34 35 34 41 42 45 43 43 42 45 48 48 49 48 50 54 58 59 70 68 60 69 74 77 80 79 90 96 97 98 95 85 78 73 73 70 67 66 65
62 59 55 51 48 46 44 40 36 31 27 28 32 37 38 39 39 41 37 40 41 42 46 53 58 62 60 55 56 59 58 64 72 73 66 69 78 82 87 93 97 97 95 94 90 86 81 77 68 66 65 63 61 59
64 60 56 52 48 45 41 38 34 31 32 36 36 43 46 45 43 44 44 43 52 54 54 60 65 66 68 71 68 66 71 70 64 62 67 76 78 79 86 84 82 82 80 81 80 77 74 70 67 64 62 61 60 60
65 62 59 56 52 49 45 41 39 35 35 38 38 42 41 41 43 48 51 53 55 59 60 64 65 64 62 62 66 65 65 62 60 67 70 73 75 74 74 74 72 71 68 66 66 66 67 65 62 59 57 58 59 58
51 53 53 51 47 45 42 35 29 26 30 32 37 35 39 43 48 48 48 50 52 60 61 57 59 57 59 61 59 58 59 62 63 69 71 74 74 75 73 70 65 60 60 59 57 55 55 54 55 57 56 58 57 57
43 43 40 38 36 31 27 25 25 28 31 36 41 41 43 42 41 43 44 45 48 52 54 56 55 57 59 60 59 66 68 70 72 75 76 73 71 71 67 67 65 62 61 57 50 46 45 45 50 51 54 57 60 62
24 27 28 26 25 24 25 25 28 33 37 38 38 38 39 40 41 45 50 51 53 55 56 57 57 55 56 54 56 57 62 66 69 73 77 75 76 73 71 68 66 63 57 47 41 37 33 29 30 35 39 44 50 56
21 21 21 22 22 24 32 34 35 38 41 45 45 47 47 50 52 51 53 55 56 61 60 57 48 47 47 49 53 59 63 67 70 72 72 71 72 71 68 64 58 51 46 43 39 35 36 33 34 38 42 44 47 51
39 34 31 28 32 36 42 45 48 49 49 50 50 52 56 55 55 55 54 53 55 54 50 48 47 45 45 50 59 62 63 64 64 62 59 57 57 55 52 47 40 33 32 35 42 45 46 44 44 48 54 58 58 57
45 42 42 41 41 41 41 42 44 42 41 41 39 39 39 42 44 45 48 51 47 42 41 40 40 44 54 57 54 52 52 52 52 53 53 51 48 42 34 32 36 44 45 44 42 42 42 42 47 52 60 64 67 69
58 54 52 49 48 46 48 46 45 43 41 43 46 46 45 45 45 42 45 46 43 38 37 41 44 50 51 51 51 52 53 53 52 49 44 36 31 31 37 40 43 41 39 39 41 42 43 47 51 57 62 70 70 72
63 62 62 62 61 61 60 59 57 56 57 54 52 51 49 50 49 48 50 47 44 42 45 46 49 51 53 53 54 53 52 47 46 40 33 30 36 40 40 39 39 38 38 40 44 46 49 54 59 62 69 71 78 78
73 68 70 71 71 70 69 68 68 67 64 64 64 60 59 56 57 58 55 48 46 45 46 46 49 51 53 53 52 50 45 45 39 32 33 34 34 38 38 39 41 41 44 48 53 57 59 60 67 69 76 78 80 87
81 74 73 73 76 75 73 73 73 71 71 71 69 64 61 64 64 60 54 50 49 51 52 54 58 59 58 57 57 55 49 33 28 33 34 32 32 35 39 40 42 47 53 58 60 61 65 68 69 78 79 87 89 90
74 77 79 76 78 79 80 76 71 69 71 70 68 69 70 71 66 58 55 54 59 60 60 63 65 66 67 64 59 47 37 32 29 30 29 31 34 38 40 42 45 50 55 59 62 66 69 73 78 80 87 89 92 95
66 72 76 78 78 75 78 81 80 78 74 72 72 75 71 69 65 64 64 66 67 68 70 73 74 73 71 67 53 41 36 32 29 29 30 34 36 38 40 44 46 49 53 58 64 68 73 78 81 86 89 94 97 97
69 67 66 74 77 76 76 78 79 77 75 75 78 74 69 69 66 67 70 72 74 75 77 79 78 76 73 61 48 41 35 30 33 34 36 39 42 43 43 46 49 49 50 55 62 67 75 80 83 89 90 92 93 98
66 63 64 68 71 72 70 73 76 75 74 74 72 70 69 69 68 69 72 75 78 80 82 80 78 76 66 53 46 37 31 31 33 33 38 41 44 47 47 46 48 50 51 52 58 66 76 82 87 89 90 90 88 92
71 68 67 67 70 68 69 71 72 73 73 74 72 72 72 73 72 72 73 75 79 81 81 78 74 65 54 48 39 34 32 33 34 34 36 39 43 48 49 46 48 49 51 52 56 63 70 77 86 90 91 91 94 97
72 70 69 71 71 69 69 75 76 76 76 75 72 72 73 75 76 75 71 71 73 72 69 66 61 54 49 41 35 33 34 35 35 36 37 40 45 49 53 51 48 53 58 63 63 61 64 69 79 86 91 92 92 95
71 68 70 70 70 69 73 76 79 80 79 75 74 73 73 72 70 67 63 61 60 60 60 59 54 50 43 36 34 34 35 36 38 39 40 42 48 53 57 61 55 56 59 66 69 68 67 67 72 81 88 93 94 95

GFSWCAN_prec_cthk_207.txt.gz
RH
53 44 44 45 35 31 27 26 33 39 48 52 56 61 64 67 68 70 63 75 87 97 96 98 97 95 96 96 97 98 99 97 98 98 98 94 91 81 78 74 76 84 92 89 88 95 88 67 70 69 60 60 53 50
59 47 39 32 30 27 27 29 35 40 42 50 50 56 60 71 73 72 72 75 87 94 97 96 97 97 96 95 97 98 98 97 98 97 95 96 93 90 84 88 77 81 71 77 77 73 76 67 62 60 56 51 45 40
42 38 37 36 35 32 32 35 38 43 43 47 54 55 54 57 69 77 69 67 73 92 97 98 97 97 97 98 98 98 98 98 96 96 96 96 96 86 92 85 80 75 74 76 76 62 65 61 57 52 43 33 31 36
66 57 53 52 48 40 38 38 39 42 45 51 56 59 61 58 61 69 75 68 68 81 93 95 94 95 98 96 98 97 97 97 96 96 96 96 93 83 84 78 75 73 72 72 66 56 48 43 41 38 34 30 29 33
98 95 90 84 77 78 77 72 64 60 54 58 63 68 68 72 76 74 66 57 62 66 83 90 86 93 95 96 98 97 98 97 98 97 96 91 81 78 75 70 64 61 59 55 50 46 42 36 37 38 39 40 41 46
93 95 97 96 92 78 70 61 90 96 90 83 82 78 78 83 86 77 82 68 55 71 76 82 91 88 86 94 95 96 97 96 94 94 93 86 82 72 68 59 56 51 45 41 37 39 37 34 36 39 41 44 51 56
98 97 98 92 78 62 41 37 39 75 99 97 98 96 96 90 76 64 72 72 78 88 92 91 96 97 98 95 92 96 93 91 88 88 80 74 69 59 64 57 50 41 37 35 33 34 35 39 45 52 54 55 59 60
93 92 88 90 88 71 54 51 78 94 97 98 97 99 98 89 79 71 92 99 90 90 95 91 88 91 92 92 91 93 87 82 78 76 72 66 63 65 59 43 35 38 38 37 36 41 46 48 49 55 63 68 71 73
95 91 85 82 79 80 72 70 75 81 88 87 86 89 91 86 94 98 98 97 88 92 96 93 87 91 88 88 85 87 83 81 72 65 58 54 51 60 47 42 40 44 48 39 34 47 54 60 65 65 73 83 82 75
82 83 83 82 82 83 84 90 93 91 92 93 93 95 96 98 97 92 81 79 82 89 92 91 86 88 87 85 88 72 66 63 58 51 51 54 42 34 38 48 52 50 43 48 54 67 73 78 77 80 79 79 77 75
64 68 72 75 78 83 80 77 77 80 85 87 89 91 85 82 80 78 73 71 71 79 84 81 81 80 77 66 64 60 53 52 51 56 48 47 43 51 51 46 44 49 53 66 74 87 96 94 91 83 81 75 72 70
59 57 57 56 60 65 69 69 71 81 79 78 73 69 67 64 57 63 66 63 59 66 67 63 63 63 63 56 48 47 48 45 51 54 54 51 61 54 50 50 55 62 65 68 88 97 98 94 85 79 79 76 74 70
61 57 52 50 50 47 45 45 46 50 53 54 51 50 52 53 57 57 62 62 63 60 62 54 49 41 39 44 47 46 48 52 50 56 53 48 60 59 58 59 62 63 66 79 95 97 96 92 83 76 73 73 72 71
54 51 49 46 43 40 37 33 32 30 31 36 41 43 48 49 50 43 41 47 46 41 42 42 43 46 45 45 47 51 48 53 59 60 49 54 58 59 63 69 75 76 86 86 80 86 88 84 78 77 73 68 67 66
53 49 46 41 39 35 31 28 26 26 31 34 37 49 54 62 58 54 51 46 49 46 46 51 56 54 53 54 51 53 58 58 49 47 57 63 59 62 69 75 78 76 73 70 71 72 69 69 70 72 73 67 66 64
57 53 49 44 41 37 34 31 29 31 36 40 50 55 58 57 63 61 57 55 54 53 54 54 54 56 56 54 54 52 51 48 52 70 66 61 58 62 67 69 71 70 67 65 68 64 60 60 57 61 56 55 56 59
50 51 48 44 41 38 35 32 33 36 40 46 57 57 55 53 54 54 53 53 51 52 52 46 49 51 52 52 51 52 52 67 72 64 62 65 64 68 69 70 70 66 64 63 61 60 58 54 51 50 51 53 52 53
41 36 33 29 27 23 20 23 24 25 33 33 36 38 42 41 42 44 46 44 46 48 47 51 53 54 56 57 55 73 75 70 65 63 62 63 68 69 71 71 70 66 67 65 62 59 57 53 47 40 37 36 36 38
21 22 22 22 21 23 22 22 29 31 38 39 39 39 39 39 41 40 43 44 49 54 60 57 57 56 59 60 60 59 66 62 62 59 59 62 62 63 61 62 62 63 61 57 52 50 46 43 41 39 37 37 40 43
20 20 19 18 18 23 26 29 33 34 40 39 39 39 43 47 46 50 52 55 54 58 60 57 52 55 55 53 47 46 48 52 54 57 59 58 55 55 54 52 52 51 50 47 41 36 37 42 45 50 47 44 46 56
34 26 25 26 30 32 38 37 39 43 43 47 48 52 56 56 57 55 56 58 57 53 49 46 49 59 50 40 41 43 47 53 55 54 53 55 52 51 51 49 47 42 36 36 39 44 49 52 51 51 46 47 54 60
43 35 38 35 36 36 40 42 46 44 45 46 46 47 48 49 51 52 52 53 50 45 44 46 52 46 41 43 45 51 49 48 49 51 50 50 52 51 47 41 37 38 42 47 46 46 45 41 39 45 48 51 50 60
49 46 44 41 41 39 42 40 42 39 42 43 41 41 43 47 52 48 45 42 41 43 42 41 40 42 44 46 49 49 50 52 52 52 50 47 43 39 38 39 42 43 44 43 42 38 41 43 46 52 51 54 57 63
60 58 58 58 56 56 53 54 50 48 48 49 51 49 49 55 50 48 46 44 52 47 43 43 44 46 49 53 56 55 54 53 51 50 49 45 38 38 43 42 42 43 44 39 42 45 49 54 56 59 59 61 66 70
71 69 65 64 63 65 64 63 62 59 60 58 58 58 60 55 58 56 54 52 50 48 47 48 53 56 59 61 63 63 61 59 58 52 44 40 39 39 40 43 43 45 41 42 49 54 58 60 62 65 69 70 73 80
72 72 71 72 72 69 65 66 67 67 65 66 66 63 61 65 66 63 58 61 54 53 58 60 63 69 70 70 72 73 71 63 50 42 43 37 38 39 38 43 45 48 44 48 54 59 61 63 67 68 72 78 79 82
64 69 73 72 75 75 76 75 71 73 71 71 69 72 70 72 70 66 62 59 60 64 70 71 72 76 78 75 74 72 67 53 43 40 33 33 35 35 39 41 42 43 45 51 57 59 63 68 70 74 79 80 85 90
63 64 67 72 77 78 77 74 74 74 75 72 71 73 71 72 69 68 66 65 65 68 71 74 78 80 81 80 76 68 54 44 37 31 35 36 36 37 37 39 41 42 45 49 56 60 66 69 74 79 81 86 90 91
71 69 66 65 65 71 71 70 68 69 71 73 76 76 74 72 71 68 64 65 68 71 74 76 80 82 80 76 70 58 50 46 39 37 37 42 46 44 43 44 44 45 47 49 51 57 63 71 76 79 84 90 92 96
68 70 68 66 64 65 67 66 70 72 70 72 74 73 71 71 68 65 65 66 68 70 76 80 81 81 77 70 59 48 40 35 32 37 41 44 45 45 45 47 45 44 47 50 51 56 64 73 78 80 83 86 88 88
76 77 75 72 65 64 72 67 64 66 70 74 73 71 71 76 73 67 64 66 70 73 75 76 77 75 69 61 53 48 43 33 31 32 33 35 36 41 45 48 48 45 48 50 51 56 64 72 79 85 88 89 87 87
82 81 79 78 75 69 64 69 71 73 77 77 76 76 74 71 69 71 67 67 68 69 71 71 69 65 59 54 51 41 36 32 32 33 34 35 37 42 46 51 54 48 51 56 59 58 60 66 72 81 88 90 91 95
77 77 79 81 75 73 73 73 74 74 75 76 76 74 73 72 72 70 63 61 62 63 63 63 61 57 53 49 43 37 34 32 33 35 36 37 38 41 48 54 59 58 55 60 63 67 66 64 66 75 83 89 92 94